Regional Weather Roundup
Issued by NWS Albany, NY

Home | Current Version | Previous Version | Graphics & Text | Print | Product List | Glossary Off
Versions: 1 2 3 4 5 6 7 8 9 10 11 12 13 14 15 16 17 18 19 20 21 22 23 24 25 26 27 28 29 30 31 32 33 34 35 36 37 38 39 40 41 42 43 44 45 46 47 48 49 50

000
ASUS41 KALY 312010
RWRALY

NEW YORK STATE HOURLY WEATHER ROUNDUP
NATIONAL WEATHER SERVICE ALBANY NY
400 PM EDT MON AUG 31 2015

NOTE: "FAIR" INDICATES FEW OR NO CLOUDS BELOW 12,000 FEET WITH NO
SIGNIFICANT WEATHER AND/OR NO OBSTRUCTIONS TO VISIBILITY.

NYZ032-033-038>043-046>054-057>066-NYZ062>081-312100-
EAST


CITY           SKY/WX    TMP DP  RH WIND       PRES   REMARKS
ALBANY         MOSUNNY   85  64  49 NW14      29.93F
GLENS FALLS    MOSUNNY   85  61  44 W10G22    29.90F
POUGHKEEPSIE   MOSUNNY   90  64  42 W13G22    29.93F HX  91
NEWBURGH       MOSUNNY   88  70  55 W12G21    29.97F HX  92
MONTGOMERY     MOSUNNY   89  67  47 W12       29.95F HX  92
WHITE PLAINS   PTSUNNY   88  63  43 W10G18    29.95F
ISLIP          CLOUDY    86  68  54 SW13      29.94F
NEW YORK CITY  PTSUNNY   91  63  39 W15       29.94F HX  92
CENTRAL PARK   MOSUNNY   91  64  40 VRB5      29.98F HX  92
$$

NYZ005>009-017-018-044>046-055-056-312100-
CENTRAL


CITY           SKY/WX    TMP DP  RH WIND       PRES   REMARKS
FULTON         SUNNY     80  65  59 W13       30.00F
SYRACUSE       MOSUNNY   82  67  60 NW12      29.99F
ROME           SUNNY     82  64  54 W17       29.99F
ELMIRA         MOSUNNY   87  64  46 NW9       30.00F
BINGHAMTON     MOSUNNY   82  64  54 NW12      30.04F
MONTICELLO     MOSUNNY   82  64  54 W9        30.03F
$$

NYZ026>034-041>043-312100-
NORTH


CITY           SKY/WX    TMP DP  RH WIND       PRES   REMARKS
WATERTOWN      MOSUNNY   77  67  71 W12       29.98S HAZE
FORT DRUM      NOT AVBL
MASSENA        PTSUNNY   79  65  62 NW10      29.95S
SARANAC LAKE   MOSUNNY   74  61  63 VRB6G21   29.98S
PLATTSBURGH    MOSUNNY   82  62  50 NW14G23   29.91R
$$

NYZ001>004-010>016-019>021-312100-
WEST


CITY           SKY/WX    TMP DP  RH WIND       PRES   REMARKS
NIAGARA FALLS  MOSUNNY   83  68  60 SW14      30.01F
BUFFALO        MOSUNNY   79  68  69 SW16G25   30.03S
DUNKIRK        SUNNY     78  68  71 W13       30.06S
JAMESTOWN      SUNNY     79  63  57 W15       30.10S
WELLSVILLE     PTSUNNY   85  61  44 W12G20    30.11S
ROCHESTER      MOSUNNY   84  66  54 W14G20    30.01S
PENN YAN       MOSUNNY   84  64  50 W12       30.03S
$$

             KEY
       WCI = WIND CHILL INDEX
       VSB = VISIBILITY
       HX  = HEAT INDEX
$$



USA.gov is the U.S. government's official web portal to all federal, state and local government web resources and services.